COSMOS 2433 (720)

Last updated on Wed Feb 04 2026 00:03:24 GMT+0000 (Coordinated Universal Time)

1 32275U 07052A 26034.17712311 -.00000067 00000+0 00000+0 0 9993 2 32275 65.6527 320.4448 0003499 266.7492 93.2376 2.13103800142205
UTC large
Height (km)
Speed (km/s)
/
Latitude / Longitude
Inclination (degrees)
Orbital Period (minutes)
Azimuth
Elevation
Range (km)
Doppler Factor

Next 0 passes for location: London (51.5072 / 0.1276)

Sorry there are no passes over London.